Lexington Weather

Lexington, Massachusetts, USA

54°F
12/10/2019 4:00pm 
  • Lexington Conditions: Light rain, Overcast
  • Temperature: 54.1°F / 12.3°CColder 1.1°F than last hour.
  • Dew Point: 52.5°FDecreased 0.4°Fsince last hour.
  • Relative Humidity: 94%Increased 2.0% since last hour.
  • Wind: Wind from WSW WSW 8 mph, 10-min avg: 3 mph, gust: 8 mph
  • Barometer: 29.69 in Steady
  • Visibility: 10 miles
  • Rain Today: 0.04 in
  •   

Regional Weather Roundup
for Boston / Norton, MA

        
000
ASUS41 KBOX 100000
RWRBOX

REGIONAL WEATHER ROUNDUP
NATIONAL WEATHER SERVICE BOSTON/NORTON MA
700 PM EST MON DEC 09 2019

NOTE:  "FAIR" INDICATES FEW OR NO CLOUDS BELOW 12,000 FEET WITH NO 
SIGNIFICANT WEATHER AND/OR OBSTRUCTIONS TO VISIBILITY.

MAZALL-100100-
EASTERN MASSACHUSETTS
  
CITY           SKY/WX    TMP DP  RH WIND       PRES   REMARKS
BOSTON         LGT RAIN  56  51  84 S13       29.83F                  
6HR MIN TEMP:  54; 6HR MAX TEMP:  57; 6HR PCP:  0.09;                

BEVERLY        LGT RAIN  53  51  93 S9        29.82F                  
LAWRENCE       LGT RAIN  52  50  93 S10G18    29.81F                  
BEDFORD        LGT RAIN  52  49  89 S12       29.80F                  
BLUE HILL        N/A     53  52  96 S20G28    29.82F                  
NORWOOD        LGT RAIN  58  52  80 S10       29.83F                  
MARSHFIELD     NOT AVBL                                               
PLYMOUTH       NOT AVBL                                               
TAUNTON        LGT RAIN  57  54  89 S9        29.87F                  
NEW BEDFORD    RAIN      57  57 100 SW13      29.88F FOG              
$$

MAZALL-100100-
CAPE COD AND THE ISLANDS
  
CITY           SKY/WX    TMP DP  RH WIND       PRES   REMARKS
FALMOUTH       HVY RAIN  55  55 100 W20G35    29.91S VSB 1            
HYANNIS        NOT AVBL                                               
CHATHAM        RAIN      53  52  96 S15G28    29.92F FOG              
NANTUCKET      LGT RAIN  52  50  93 S21       29.93F FOG              
MARTHAS VNYRD  RAIN      56  54  93 S28G36    29.88F FOG              
$$
 
MAZALL-100100-
CENTRAL AND WESTERN MASSACHUSETTS
  
CITY           SKY/WX    TMP DP  RH WIND       PRES   REMARKS
WORCESTER      LGT RAIN  48  47  96 S14       29.80F FOG              
6HR MIN TEMP:  48; 6HR MAX TEMP:  49; 6HR PCP:  0.21;                

FITCHBURG      NOT AVBL                                               
ORANGE         LGT RAIN  49  47  93 S9        29.78F                  
SPRINGFIELD    LGT RAIN  46  46 100 S12       29.78F VSB 3/4          
WESTFIELD      LGT RAIN  47  46  97 S8        29.78F FOG              
NORTH ADAMS    LGT RAIN  51  44  77 VRB3G24   29.73F                  
PITTSFIELD     LGT RAIN  48  44  86 S14G22    29.72F                  
$$
 
RIZALL-100100-
RHODE ISLAND
  
CITY           SKY/WX    TMP DP  RH WIND       PRES   REMARKS
PROVIDENCE     LGT RAIN  56  55  97 S10       29.86F                  
6HR MIN TEMP:  53; 6HR MAX TEMP:  56; 6HR PCP:  0.74;                

NEWPORT        RAIN      56  54  93 S13G20    29.87F FOG              
BLOCK ISLAND   LGT RAIN  54  53  97 SW14      29.89F VSB 1            
SMITHFIELD     LGT RAIN  53  52  96 VRB6      29.84F                  
WESTERLY       LGT RAIN  55  51  86 S9        29.87F FOG              
$$
 
CTZALL-100100-
CONNECTICUT
  
CITY           SKY/WX    TMP DP  RH WIND       PRES   REMARKS
BRADLEY INTL   LGT RAIN  48  47  96 S12       29.79F VSB 1            
6HR MIN TEMP:  38; 6HR MAX TEMP:  50; 6HR PCP:  0.18;                

HARTFORD       LGT RAIN  51  49  92 S7        29.81F                  
BRIDGEPORT     RAIN      51  50  96 S8        29.83F FOG              
DANBURY        RAIN      51  50  96 SW6       29.80F FOG              
GROTON         NOT AVBL                                               
NEW HAVEN      LGT RAIN  53  50  89 S7        29.83F FOG              
CHESTER        RAIN      54  54 100 S9        29.85F                  
MERIDEN        RAIN      51  50  96 S10       29.82F                  
WILLIMANTIC    LGT RAIN  51  51 100 S7        29.84F                  
OXFORD         RAIN      50  50 100 S10G17    29.81F                  
$$

MEZ002-015-021-024-NHZ003-005-008-011-012-014-VTZ005-008-100100-
NORTHERN NEW ENGLAND
  
CITY           SKY/WX    TMP DP  RH WIND       PRES   REMARKS
PORTLAND ME    LGT RAIN  51  47  86 S18G26    29.81F FOG              
6HR MIN TEMP:  40; 6HR MAX TEMP:  52; 6HR PCP:  0.43;                

BANGOR ME      LGT RAIN  51  49  92 S21G33    29.82F                  
CONCORD NH     LGT RAIN  43  43 100 S6        29.76F VSB 1/4          
MANCHESTER NH  LGT RAIN  51  50  96 S15       29.76F FOG              
NASHUA NH      LGT RAIN  50  50 100 VRB7      29.78F                  
PORTSMOUTH NH  NOT AVBL                                               
JAFFREY NH     LGT RAIN  48  46  93 S12       29.76F                  
KEENE NH       LGT RAIN  48  47  96 S8        29.76F                  
BURLINGTON VT  CLOUDY    47  44  90 S14G25    29.59F                  
MT. WASHINGTON NOT AVBL                                               
$$

NYZ052-076-100100-
EASTERN NEW YORK
  
CITY           SKY/WX    TMP DP  RH WIND       PRES   REMARKS
ALBANY         CLOUDY    46  41  82 S17G29    29.69F                  
6HR MIN TEMP:  39; 6HR MAX TEMP:  46; 6HR PCP:  0.05;                

NEW YORK CITY  HVY RAIN  52  49  89 SW9       29.82F FOG              
6HR MIN TEMP:  52; 6HR MAX TEMP:  55; 6HR PCP:  0.65;                

$$
 
ANZALL-100100-
MARINE OBSERVATIONS
  
STATION/POSITION TIME  TEMP    WIND        PRES    VSBY  WAVE
                       AIR SEA DIR/SP/G                  HT/PER
                 (UTC) (F)     (DEG/KT/KT) (MB)    (MI)  (FT/S)
BOSTON BUOY      2250   50 48  150/ 14/ 16 1011.3          4/ 5
BUZZARDS BAY     2300   54     190/ 29/ 31 1012.0F
NANTUCKET SOUND  2340      43              1012.5F
MASS BAY-STELLWA 2304   49 46  190/ 17/ 21 1009.6F  1 1/8  5/ 5
ISLE OF SHOALS   2300   49     170/ 27/ 29 1009.9F
S OF BLOCK IS    2330      52                N/A          11/ 9
$$

......................KEY.........................
  SKY/WX - SKY CONDITION/PRESENT WEATHER
  TMP    - TEMPERATURE IN FAHRENHEIT
  DWPT   - DEWPOINT IN FAHRENHEIT
  RH     - RELATIVE HUMIDITY IN PERCENT
  WIND   - DIRECTION AND SPEED IN MPH
  PRES   - MEAN SEA LEVEL PRESSURE IN INCHES OF HG
  WCI    - WIND CHILL INDEX
  VSB    - VISIBILITY IN MILES
  HX     - HEAT INDEX
  TC     - TEMPERATURE IN CELSIUS
  VRB    - VARIABLE WIND DIRECTION
  N/A    - NOT AVAILABLE
  
      

Other recent Regional Weather Roundups

Tue Dec 10, 3:10pm

Tue Dec 10, 3:01pm

Tue Dec 10, 2:10pm

Tue Dec 10, 2:01pm

Tue Dec 10, 1:10pm

Tue Dec 10, 1:00pm

Tue Dec 10, 12:10pm

Tue Dec 10, 12:00pm

Tue Dec 10, 11:10am

Tue Dec 10, 11:00am

Tue Dec 10, 10:10am

Tue Dec 10, 10:00am

Tue Dec 10, 9:10am

Tue Dec 10, 9:01am

Tue Dec 10, 8:10am

Tue Dec 10, 8:00am

Tue Dec 10, 7:10am

Tue Dec 10, 7:00am

Tue Dec 10, 6:10am

Tue Dec 10, 6:00am

Tue Dec 10, 5:10am

Tue Dec 10, 5:00am

Tue Dec 10, 4:10am

Tue Dec 10, 4:00am

Tue Dec 10, 3:10am

Tue Dec 10, 3:00am

Tue Dec 10, 2:10am

Tue Dec 10, 2:01am

Tue Dec 10, 1:10am

Tue Dec 10, 1:00am

Tue Dec 10, 12:10am

Tue Dec 10, 12:01am

Mon Dec 9, 11:10pm

Mon Dec 9, 11:01pm

Mon Dec 9, 10:10pm

Mon Dec 9, 10:00pm

Mon Dec 9, 9:10pm

Mon Dec 9, 9:01pm

Mon Dec 9, 8:10pm

Mon Dec 9, 8:01pm

Mon Dec 9, 7:10pm

Mon Dec 9, 6:10pm

Mon Dec 9, 6:00pm

Mon Dec 9, 5:10pm

Mon Dec 9, 5:01pm

Mon Dec 9, 4:10pm

Mon Dec 9, 4:01pm

Mon Dec 9, 3:10pm

Mon Dec 9, 3:01pm

Mon Dec 9, 2:10pm

Mon Dec 9, 2:00pm

Mon Dec 9, 1:10pm

Mon Dec 9, 1:00pm

Mon Dec 9, 12:10pm

Mon Dec 9, 12:00pm

Mon Dec 9, 11:10am

Mon Dec 9, 11:00am

Mon Dec 9, 10:10am

Mon Dec 9, 10:00am

Mon Dec 9, 9:10am

Mon Dec 9, 9:00am

Mon Dec 9, 8:10am

Mon Dec 9, 8:00am

Mon Dec 9, 7:10am

Mon Dec 9, 7:00am

Mon Dec 9, 6:10am

Mon Dec 9, 6:00am

Mon Dec 9, 5:10am

Mon Dec 9, 5:00am

Mon Dec 9, 4:10am

Mon Dec 9, 4:00am

Mon Dec 9, 3:10am

Mon Dec 9, 3:00am

Mon Dec 9, 2:10am

Mon Dec 9, 2:00am

Mon Dec 9, 1:10am

Mon Dec 9, 1:00am

Mon Dec 9, 12:10am

Mon Dec 9, 12:00am

Sun Dec 8, 11:10pm

Sun Dec 8, 11:00pm

Sun Dec 8, 10:10pm

Sun Dec 8, 10:01pm

Sun Dec 8, 9:10pm

Sun Dec 8, 9:01pm

Sun Dec 8, 8:10pm

Sun Dec 8, 8:00pm

Sun Dec 8, 7:10pm

Sun Dec 8, 7:00pm

Sun Dec 8, 6:10pm

Sun Dec 8, 6:01pm

Sun Dec 8, 5:10pm

Sun Dec 8, 5:00pm

Sun Dec 8, 4:10pm

Sun Dec 8, 4:01pm

Sun Dec 8, 3:10pm

Sun Dec 8, 3:01pm

Sun Dec 8, 2:10pm

Sun Dec 8, 2:01pm

Sun Dec 8, 1:10pm

Sun Dec 8, 1:00pm

Sun Dec 8, 12:10pm

Sun Dec 8, 12:01pm

Sun Dec 8, 11:10am

Sun Dec 8, 11:00am

Sun Dec 8, 10:10am

Sun Dec 8, 10:01am

Sun Dec 8, 9:10am

Sun Dec 8, 9:00am

Sun Dec 8, 8:10am

Sun Dec 8, 8:00am

Sun Dec 8, 7:10am

Sun Dec 8, 7:00am

Sun Dec 8, 6:10am

Sun Dec 8, 6:00am

Sun Dec 8, 5:10am

Sun Dec 8, 5:00am

Sun Dec 8, 4:10am

Sun Dec 8, 4:00am

Sun Dec 8, 3:10am

Sun Dec 8, 3:00am

Sun Dec 8, 2:10am

Sun Dec 8, 2:00am

Sun Dec 8, 1:10am

Sun Dec 8, 1:00am

Sun Dec 8, 12:10am

Sun Dec 8, 12:01am

Sat Dec 7, 11:10pm

Sat Dec 7, 11:00pm

Sat Dec 7, 10:10pm

Sat Dec 7, 10:00pm

Sat Dec 7, 9:10pm

Sat Dec 7, 9:00pm

Sat Dec 7, 8:10pm

Sat Dec 7, 8:00pm

Sat Dec 7, 7:10pm

Sat Dec 7, 7:00pm

Sat Dec 7, 6:10pm

Sat Dec 7, 6:00pm

Sat Dec 7, 5:10pm

Sat Dec 7, 5:00pm

Sat Dec 7, 4:10pm

Sat Dec 7, 4:00pm

Meta data:

ID: 3e970829-8619-43e9-9013-27723ddc204a
Link: https://api.weather.gov/products/3e970829-8619-43e9-9013-27723ddc204a